sat.trackr.live / text

‹ back to catalog

STARLINK-35559

NORAD 66095 · 2025-236K

PAYLOAD ACTIVE UNKNOWN

§ Identity

Operator
Country
US
Launch date
2025-10-19
Launch site
AFWTR
Launch vehicle
Mass (kg)
RCS (m²)

Purposes: comms

External: N2YO · Heavens-Above · Gunter

§ Orbital elements

Epoch: 2026-09-20T08:18:50.027904Z

Period
93.85 min
Inclination
53.1589°
Eccentricity
0.0001697
Mean motion
15.34401099 rev/d
Perigee alt
461.5 km
Apogee alt
463.9 km
Semi-major
6,840.8 km
B*
2.8134e-4
RAAN
278.5599°
Arg perigee
83.6125°
Mean anomaly
276.5071°
Rev number
5,276

§ Raw data

STARLINK-355591 66095U 25236K   26263.34641236  .00009141  00000+0  28134-3 0  99972 66095  53.1589 278.5599 0001697  83.6125 276.5071 15.34401099 52766

JSON: /api/v1/satellites/66095 · /tle

For live sub-satellite position, see the globe view (requires WebGL).

§ Visibility from observer

Set your observer location to see the next 7 days of passes ≥ 10°. The values pass through the URL so the page stays shareable.

No JS? Fill the form by hand. The geolocation button needs JavaScript.